GW1135 Weather Reports


time (UTC)temp
C
wind
direction
speed
KPH
gust
KPH
rain 1hr
cm
rain 24hr
cm
rain mn
cm
humidity
%
barometer
mb
20260506080332 15 0.0 0.0 0.00 0.00 0.00 85 1006.1
20260506072804 15 0.0 0.0 0.00 0.00 0.00 81 1006.0
20260506071621 15 0.0 0.0 0.00 0.00 0.00 79 1006.0
20260506070332 15 0.0 0.0 0.00 0.00 0.00 82 1006.1
20260506061604 15 0.0 0.0 0.00 0.00 0.00 82 1006.4
20260506060317 15 0.0 0.0 0.00 0.00 0.00 83 1006.5
20260506050348 15 0.0 0.0 0.00 0.00 0.00 80 1007.2
20260506044020 14 0.0 0.0 0.00 0.00 0.00 84 1007.3
20260506042749 14 0.0 0.0 0.00 0.00 0.00 83 1007.3
20260506041604 15 0.0 0.0 0.00 0.00 0.00 82 1007.2
20260506040317 15 0.0 0.0 0.00 0.00 0.00 81 1006.9
20260506035116 15 0.0 0.0 0.00 0.00 0.00 80 1007.1
20260506033932 15 0.0 0.0 0.00 0.00 0.00 80 1007.2
20260506032717 16 0.0 0.0 0.00 0.00 0.00 78 1007.2
20260506031532 16 0.0 0.0 0.00 0.00 0.00 78 1007.3
20260506030348 15 0.0 0.0 0.00 0.00 0.00 79 1007.3
20260506025205 15 0.0 0.0 0.00 0.00 0.00 78 1007.3
20260506024020 15 0.0 0.0 0.00 0.00 0.00 78 1007.4
20260506022748 16 0.0 0.0 0.00 0.00 0.00 75 1007.2
20260506021549 17 0.0 0.0 0.00 0.00 0.00 73 1007.2
20260506020349 17 0.0 0.0 0.00 0.00 0.00 70 1007.3
20260506015148 17 0.0 0.0 0.00 0.00 0.00 70 1007.3
20260506014005 18 0.0 0.0 0.00 0.00 0.00 69 1007.1
20260506012717 18 0.0 0.0 0.00 0.00 0.00 66 1007.1
20260506011634 19 0.0 0.0 0.00 0.00 0.00 64 1007.1
20260506010348 20 0.0 0.0 0.00 0.00 0.00 64 1007.1
20260506005149 20 0.0 0.0 0.00 0.00 0.00 62 1006.8
20260506004005 20 178 0.0 1.6 0.00 0.00 0.00 61 1006.7
20260506002717 21 0.0 0.0 0.00 0.00 0.00 60 1006.6
20260506001532 21 0.0 0.0 0.00 0.00 0.00 59 1006.4
20260506000349 21 207 1.6 1.6 0.00 0.00 0.00 58 1006.4
20260505235206 22 0.0 0.0 0.00 0.00 0.00 57 1006.2
20260505233957 22 0.0 0.0 0.00 0.00 0.00 55 1006.3
20260505232732 22 212 1.6 1.6 0.00 0.00 0.00 54 1006.1
20260505231549 22 278 3.2 8.0 0.00 0.00 0.00 52 1006.0
20260505230406 23 233 1.6 3.2 0.00 0.00 0.00 51 1006.0
20260505225205 23 209 6.4 9.7 0.00 0.00 0.00 51 1005.9
20260505223938 23 247 3.2 9.7 0.00 0.00 0.00 50 1005.8
20260505222733 23 298 6.4 16.1 0.00 0.00 0.00 49 1005.7
20260505221548 24 299 4.8 9.7 0.00 0.00 0.00 46 1005.7
20260505220405 25 285 9.7 14.5 0.00 0.00 0.00 41 1005.6
20260505215116 25 249 6.4 11.3 0.00 0.00 0.00 40 1005.3
20260505213933 25 245 3.2 4.8 0.00 0.00 0.00 39 1005.3
20260505212748 26 272 4.8 9.7 0.00 0.00 0.00 38 1005.1
20260505211537 26 223 6.4 12.9 0.00 0.00 0.00 37 1004.9
20260505210334 26 260 4.8 8.0 0.00 0.00 0.00 37 1004.9
20260505205149 26 238 6.4 11.3 0.00 0.00 0.00 37 1005.0
20260505204004 26 227 4.8 8.0 0.00 0.00 0.00 38 1005.2
20260505202845 25 213 8.0 16.1 0.00 0.00 0.00 38 1005.1
20260505201516 26 250 11.3 14.5 0.00 0.00 0.00 37 1005.2
20260505200317 26 226 9.7 12.9 0.00 0.00 0.00 36 1005.1
20260505195118 26 238 12.9 22.5 0.00 0.00 0.00 36 1004.9
20260505194006 26 211 16.1 22.5 0.00 0.00 0.00 38 1005.0
20260505192738 26 229 11.3 16.1 0.00 0.00 0.00 37 1005.0
20260505191533 26 242 11.3 20.9 0.00 0.00 0.00 39 1005.0
20260505190348 27 230 12.9 20.9 0.00 0.00 0.00 37 1005.0
20260505185206 26 171 8.0 14.5 0.00 0.00 0.00 43 1005.3
20260505183917 26 228 8.0 14.5 0.00 0.00 0.00 41 1005.4
20260505182734 27 237 11.3 16.1 0.00 0.00 0.00 41 1005.7
20260505181533 26 201 12.9 27.4 0.00 0.00 0.00 40 1005.9
20260505180350 26 231 11.3 22.5 0.00 0.00 0.00 42 1006.1
20260505175149 26 245 9.7 16.1 0.00 0.00 0.00 42 1006.4
20260505173934 26 239 9.7 20.9 0.00 0.00 0.00 42 1006.4
20260505172733 26 253 11.3 20.9 0.00 0.00 0.00 43 1006.3
20260505171551 26 219 9.7 17.7 0.00 0.00 0.00 43 1006.3
20260505170334 26 248 9.7 16.1 0.00 0.00 0.00 44 1006.4
20260505165116 25 232 14.5 20.9 0.00 0.00 0.00 44 1006.6
20260505163934 25 251 12.9 22.5 0.00 0.00 0.00 45 1006.8
20260505162750 25 247 9.7 17.7 0.00 0.00 0.00 45 1007.0
20260505161605 25 269 6.4 12.9 0.00 0.00 0.00 45 1007.2
20260505160318 25 240 11.3 17.7 0.00 0.00 0.00 47 1007.2
20260505152749 24 260 11.3 17.7 0.00 0.00 0.00 50 1007.6
20260505151606 23 210 8.0 14.5 0.00 0.00 0.00 51 1007.8
20260505150317 23 234 14.5 24.1 0.00 0.00 0.00 51 1007.9
20260505140318 21 208 9.7 12.9 0.00 0.00 0.00 58 1007.8
20260505123949 17 220 1.6 3.2 0.00 0.00 0.00 72 1008.6
20260505122806 16 217 3.2 4.8 0.00 0.00 0.00 71 1008.7
20260505121538 16 228 4.8 9.7 0.00 0.00 0.00 71 1008.7
20260505120333 16 216 3.2 8.0 0.00 0.00 0.00 70 1008.5
20260505115150 16 208 3.2 4.8 0.00 0.00 0.00 72 1008.5
20260505114005 16 214 1.6 1.6 0.00 0.00 0.00 73 1008.3
20260505112718 15 176 1.6 4.8 0.00 0.00 0.00 74 1008.2
20260505111533 15 215 0.0 1.6 0.00 0.00 0.00 75 1008.2
20260505110351 14 0.0 0.0 0.00 0.00 0.00 75 1007.9
20260505101534 15 0.0 0.0 0.00 0.00 0.00 74 1008.0
20260505100349 15 216 3.2 3.2 0.00 0.00 0.00 72 1007.9
20260505095151 15 209 4.8 9.7 0.00 0.00 0.00 71 1007.6
20260505093934 15 212 4.8 8.0 0.00 0.00 0.00 71 1007.5
20260505092733 15 233 3.2 3.2 0.00 0.00 0.00 71 1007.3
20260505091550 16 205 6.4 12.9 0.00 0.00 0.00 70 1007.2
20260505090405 16 196 4.8 9.7 0.00 0.00 0.00 70 1007.1
20260505085223 16 234 4.8 4.8 0.00 0.00 0.00 69 1007.1
20260505084005 16 180 4.8 11.3 0.00 0.00 0.00 69 1007.2
20260505082719 16 221 3.2 8.0 0.00 0.00 0.00 69 1007.2
20260505081533 15 207 3.2 8.0 0.00 0.00 0.00 69 1007.1